Regional Weather Roundup
Issued by NWS

Home | Current Version | Previous Version | Graphics & Text | Print | Product List | Glossary On
Versions: 1 2 3 4 5 6 7 8 9 10 11 12 13 14 15 16 17 18 19 20 21 22 23 24 25 26 27 28 29 30 31 32 33 34 35 36 37 38 39 40 41 42 43 44 45 46 47 48 49 50
000
ASUS43 KIND 301709
RWRIN

WEATHER ROUNDUP FOR INDIANA
NATIONAL WEATHER SERVICE INDIANAPOLIS IN
100 PM EDT FRI SEP 30 2016

NOTE: "FAIR" INDICATES FEW OR NO CLOUDS BELOW 12,000 FEET WITH NO
SIGNIFICANT WEATHER AND/OR OBSTRUCTIONS TO VISIBILITY.

* - STATION DOES NOT REPORT WEATHER SUCH AS PRECIPITATION OR FOG.

+ - STATION NOT QUALITY CONTROLLED BY THE NATIONAL WEATHER SERVICE.
    USE DATA WITH CAUTION...ESPECIALLY DEWPOINT AND RELATIVE
    HUMIDITY OBSERVATIONS.

INZ001>003-010>013-019-020-301800-
NORTHWEST INDIANA

CITY           SKY/WX    TMP DP  RH WIND       PRES   REMARKS
GARY /AIRPORT/ CLOUDY    64  61  88 NE14G28   30.12F
KNOX *+        CLOUDY    66  43  42 E14       30.09S
LA PORTE +     CLOUDY    66  66 100 NE10      30.11S
MICHIGAN CITY+ CLOUDY    64  63  94 NE7       30.12S
MONTICELLO +   CLOUDY    62  56  82 NE10      30.06S
RENSSELAER +   DRIZZLE   63  61  94 NE9       30.09S
VALPARAISO     CLOUDY    65  59  81 NE9       30.10F

$$

LMZ046-743>745-301800-
SOUTHERN LAKE MICHIGAN

STATION/POSITION TIME  TEMP    WIND        PRES    WAVE
                       AIR SEA DIR/SP/G            HT
                 (UTC) (F)     (DEG/KT/KT) (MB)    (FT)
BURNS HARBOR     1640   63      50/ 18/ 23 1020.0S
MICHIGAN CITY    1640   60      20/ 16/ 17   N/A
5NW MICH CITY    1700   62 64   40/ 12/ 17   N/A     6

$$

INZ004-005-014>016-021>024-301800-
NORTH CENTRAL INDIANA

CITY           SKY/WX    TMP DP  RH WIND       PRES   REMARKS
ELKHART        CLOUDY    63  61  94 MISG      30.10F
GOSHEN         PTSUNNY   67  60  78 NE16      30.08F
LOGANSPORT +   LGT RAIN  61  59  94 NE6       30.07S
PERU/GRISSOM   CLOUDY    63  63 100 NE13      30.05S
ROCHESTER +    CLOUDY    63  63 100 NE7       30.08F
SOUTH BEND     CLOUDY    64  61  90 NE17G23   30.10F
WARSAW +       CLOUDY    63  57  82 E8        30.09S

$$

INZ006>009-017-018-025>027-301800-
NORTHEAST INDIANA

CITY           SKY/WX    TMP DP  RH WIND       PRES   REMARKS
ANGOLA *+        N/A     63  52  67 E8        30.10F
AUBURN +       CLOUDY    64  57  77 E12G17    30.09S
FORT WAYNE     CLOUDY    64  59  83 E13       30.08R
HUNTINGTON +   CLOUDY   N/A N/A N/A E3        30.07F
KENDALLVILLE + CLOUDY    64  59  86 E12G22    30.09R

$$

INZ028-029-035-036-043>045-051>053-301800-
WEST CENTRAL INDIANA

CITY           SKY/WX    TMP DP  RH WIND       PRES   REMARKS
CRAWFORDSVL +  LGT RAIN  60  60 100 N3        30.03F
GREENCASTLE +  PTSUNNY   64  61  88 N5        30.03F
LAFAYETTE      CLOUDY    63  60  90 NE9       30.04
TERRE HAUTE    CLOUDY    64  58  80 N6        30.04F

$$

INZ030>032-037>040-046>048-054>057-064-065-301800-
CENTRAL INDIANA

CITY           SKY/WX    TMP DP  RH WIND       PRES   REMARKS
ANDERSON       PTSUNNY   64  61  88 CALM      30.03F
COLUMBUS       CLOUDY    63  59  88 CALM      30.04S
FISHERS *+     CLOUDY    61  59  94 CALM      30.04S
FRANKFORT +    CLOUDY    67  63  87 E10       30.06S
GREENWOOD *+   CLOUDY    64  59  82 E3        30.04F
INDIANAPOLIS   PTSUNNY   65  57  75 NE5       30.03F
-EAGLE CREEK   PTSUNNY   64  57  78 VRB5      30.03R
KOKOMO *+      CLOUDY    63  61  94 NE13      30.06S
MARION +       CLOUDY    63  59  88 NE12      30.05F
MT COMFORT *+  CLOUDY    61  57  88 CALM      30.04S
SHELBYVILLE    LGT RAIN  63  57  81 CALM      30.03S
ZIONSVILLE +   PTSUNNY   63  58  81 CALM      30.04S

$$

INZ033-034-041-042-049-050-058-059-301800-
EAST CENTRAL INDIANA

CITY           SKY/WX    TMP DP  RH WIND       PRES   REMARKS
MUNCIE         CLOUDY    64  60  87 E6        30.03S

$$

INZ060-061-067>069-081>083-085>088-301800-
SOUTHWEST INDIANA

CITY           SKY/WX    TMP DP  RH WIND       PRES   REMARKS
EVANSVILLE     CLOUDY    69  56  62 CALM      30.03F
HUNTINGBURG *+   N/A     63  52  67 CALM      30.05S
WASHINGTON +   CLOUDY    64  57  78 MISG      30.03F

$$

INZ062-063-066-070>080-084-089>092-301800-
SOUTH CENTRAL AND SOUTHEAST INDIANA

CITY           SKY/WX    TMP DP  RH WIND       PRES   REMARKS
BLOOMINGTON    CLOUDY    64  55  72 NE7       30.03F
MADISON *+     CLOUDY    63  50  63 CALM      30.06S
NORTH VERNON + CLOUDY    66  63  88 CALM      30.04F
SEYMOUR +      CLOUDY    64  55  72 CALM      30.04S

$$




USA.gov is the U.S. government's official web portal to all federal, state and local government web resources and services.